Regional Weather Roundup
Issued by NWS

Home | Current Version | Previous Version | Text Only | Print | Product List | Glossary On
Versions: 1 2 3 4 5 6 7 8 9 10 11 12 13 14 15 16 17 18 19 20 21 22 23 24 25 26 27 28 29 30 31 32 33 34 35 36 37 38 39 40 41 42 43 44 45 46 47 48 49 50
000
ASUS42 KKEY 010810
RWRKEY

FLORIDA REGIONAL WEATHER ROUNDUP FOR THE FLORIDA KEYS
NATIONAL WEATHER SERVICE KEY WEST FLORIDA
400 AM EDT SAT AUG 01 2015

...SOUTH FLORIDA AND THE KEYS...

CITY           SKY/WX    TMP DP  RH WIND       PRES   REMARKS
FORT MYERS     LGT RAIN  73  72  96 SE7       29.97F
SW REGIONAL AP LGT RAIN  73  71  93 E7        29.98F
NAPLES         CLOUDY    81  75  82 NW5       29.99F
MIAMI          CLOUDY    76  70  82 CALM      30.01F
WEST KENDALL   MOCLDY    75  72  90 CALM      30.01F
HOMESTEAD      MOCLDY    76  70  81 N3        30.00F
MARATHON       PTCLDY    85  77  77 S5        30.00F HX  95
BOCA CHICA NAS PTCLDY    84  76  76 SE12      30.00F HX  93
KEY WEST INTL  PTCLDY    85  76  74 SE12      30.00F HX  94

...INTERNATIONAL WEATHER...

CITY           SKY/WX    TMP DP  RH WIND       PRES   REMARKS
NASSAU BAHAMAS CLOUDY    82  75  78 CALM      30.03
CANCUN MEXICO  PTCLDY    79  77  94 SE2       29.98F
COZUMEL MEXICO PTCLDY    73  73 100 CALM      29.99S

ADJACENT COASTAL WATERS...

STATION/POSITION TIME  SKY/WX   TEMP    WIND        PRES    WAVE
                                AIR SEA DIR/SP/G            HT/PER
                 (UTC)          (F)     (DEG/KT/KT) (MB)    (FT/S)
PULASKI SHOAL LI 0700            85     160/  8/  9 1015.8F
SAND KEY         0750            85     140/ 13/ 15 1015.9F
SOMBRERO KEY     0800            85     160/  9/ 10 1016.7F
LONG KEY         0700            85 89  150/  8/  9 1017.0F
MOLASSES REEF    0800            85 87  180/ 10/ 12 1016.1F
FOWEY ROCKS      NOT AVBL

$$



USA.gov is the U.S. government's official web portal to all federal, state and local government web resources and services.